Location: Fairmont
(43.6520°N, 94.4610°W)
Time: 19:10:52
(UTC-05:00)

Daily predictions for brighter satellites

Satellite Brightness Start Highest point End
(mag) Time Altitude Azimuth Time Altitude Azimuth Time Altitude Azimuth
Cosmos 2061 Rocket 4.4 21:31:35 10° N 21:37:47 50° ENE 21:44:00 10° SSE
Cosmos 1356 Rocket 3.9 21:33:48 10° SSE 21:37:48 42° E 21:41:53 10° NNE
Cosmos 2173 Rocket 4.2 21:34:26 10° N 21:40:29 56° ENE 21:46:35 10° SSE
Cosmos 2297 Rocket 3.2 21:35:45 10° SW 21:41:16 54° WNW 21:46:50 10° NNE
YAOGAN 6 2.7 21:40:25 10° S 21:44:04 85° W 21:47:47 10° NNW
H-2A R/B 3.4 21:39:50 10° ESE 21:44:18 28° ENE 21:48:50 10° N
Cosmos 1741 Rocket 4.0 21:42:08 10° SSW 21:47:27 84° ESE 21:52:47 10° NNE
Cosmos 1726 3.4 21:45:48 10° NNE 21:48:58 26° ENE 21:52:04 10° SE
Cosmos 1818 3.8 21:43:48 10° NW 21:49:14 69° WSW 21:54:36 10° SSE
Cosmos 2263 Rocket 3.8 21:47:35 10° SE 21:50:32 15° E 21:53:30 10° ENE
Cosmos 1300 4.1 21:49:29 10° NNE 21:52:37 23° ENE 21:55:37 11° SE
RESURS DK-1 3.1 21:49:07 10° NNW 21:53:05 41° ENE 21:56:54 11° SE
Meteor 1-21 Rocket 4.3 21:48:01 10° S 21:53:37 63° E 21:59:08 10° NNE
ATLAS 5 CENTAUR R/B 2.0 21:49:15 10° SW 21:53:55 78° NW 21:59:03 10° NE
Meteor 2-17 Rocket 4.5 21:49:09 10° N 21:55:20 77° E 22:01:29 10° SSE
Cosmos 1076 Rocket 3.5 21:52:21 10° S 21:56:42 73° E 22:01:04 10° NNE
Cosmos 1408 Rocket 3.8 21:56:14 10° SSE 22:00:23 49° E 22:04:34 10° NNE
ERBS 3.4 22:00:11 10° NW 22:03:22 36° NE 22:06:28 10° ESE
Cosmos 1802 Rocket 4.0 21:59:03 10° N 22:05:12 74° E 22:11:20 10° SSE
CZ-4B DEB 4.4 22:04:38 10° SSW 22:07:17 29° W 22:09:57 10° NW
Cosmos 2221 3.4 22:05:19 10° NNW 22:09:35 51° W 22:13:50 10° S
Tiangong 1 0.6 22:07:59 10° W 22:10:47 75° S 22:13:24 11° E
Meteor 1-29 4.4 22:08:15 10° N 22:11:30 40° WNW 22:14:45 10° SW
Cosmos 1603 3.7 22:11:56 10° NNW 22:17:38 78° ENE 22:22:24 15° SSE
Cosmos 1674 3.4 22:15:50 10° SSW 22:19:31 54° W 22:23:13 10° N
Cosmos 1814 Rocket 4.3 22:15:27 10° NNW 22:20:45 60° ENE 22:24:55 16° SE
Cosmos 371 Rocket 3.5 22:17:26 10° NNW 22:22:12 57° ENE 22:25:49 17° SE
Cosmos 1455 4.4 22:23:45 10° NE 22:25:49 14° ENE 22:27:33 11° E
MetOp-A 4.4 22:21:56 10° S 22:27:16 69° WSW 22:32:38 10° NNW
Cosmos 1486 Rocket 4.4 22:24:29 11° S 22:29:17 43° ESE 22:34:17 10° NNE
ARGOS 3.2 22:24:14 12° SSE 22:29:20 84° WSW 22:34:47 10° NNW
Cosmos 841 Rocket 4.1 22:25:14 10° N 22:30:17 45° ENE 22:33:53 18° SE
SPOT 5 2.9 22:26:16 14° SSE 22:30:32 88° WSW 22:35:42 10° NNW
Lacrosse 5 1.9 22:25:47 10° NW 22:30:51 78° SW 22:34:30 19° SE
Cosmos 2016 Rocket 4.1 22:25:19 10° N 22:31:36 83° W 22:37:34 11° S
Cosmos 1763 Rocket 3.7 22:26:53 10° NNW 22:31:56 57° ENE 22:35:29 19° SE
Cosmos 1943 3.6 22:27:09 10° NNW 22:32:42 54° ENE 22:36:46 18° SE
SL-16 R/B 3.8 22:29:17 10° NW 22:34:02 28° WSW 22:38:45 10° SSW
Abrixas rocket 2.1 22:33:29 10° WNW 22:36:45 82° NNE 22:38:41 22° ESE
Cosmos 1242 Rocket 4.4 22:34:13 10° NNW 22:37:28 29° W 22:40:42 10° SSW
Cosmos 1766 Rocket 4.0 22:33:32 10° SSW 22:37:49 60° W 22:42:08 10° N
SPOT 1/Viking Rocket 3.5 22:35:08 17° SSE 22:39:10 82° ENE 22:44:21 10° NNW
Cosmos 1328 Rocket 3.5 22:37:35 10° N 22:41:57 87° E 22:44:57 20° S
USA 245 3.9 22:44:50 17° S 22:47:21 51° W 22:51:32 10° NNW
Cosmos 1515 Rocket 3.5 22:43:37 10° N 22:47:58 73° E 22:50:33 23° SSE
Cosmos 1151 Rocket 3.3 22:43:52 10° N 22:48:12 56° E 22:50:35 25° SSE
Landsat 7 3.8 22:47:28 22° SSE 22:50:31 72° ENE 22:55:16 10° N
IGS 5A 4.0 22:48:26 24° SE 22:50:33 44° ENE 22:54:31 10° N
H-2A R/B 2.8 22:51:01 23° SE 22:53:09 39° ENE 22:57:06 10° N
Cosmos 1743 Rocket 3.5 22:50:22 16° S 22:53:52 89° W 22:58:12 10° N
Cosmos 2233 Rocket 4.0 22:49:44 10° N 22:55:57 68° E 23:00:00 22° SSE
Cosmos 2228 Rocket 3.3 22:51:53 10° NNW 22:56:30 73° W 22:59:35 20° S
Cosmos 1703 3.8 22:57:47 29° SE 22:59:15 43° E 23:03:03 10° NNE
USA 234 3.2 22:55:24 10° NE 23:01:59 81° SE 23:08:31 10° SW
Terra 1.8 23:02:53 27° SSE 23:05:27 71° ENE 23:10:13 10° N
CZ-4 R/B 4.4 23:04:49 10° NNE 23:09:23 40° E 23:11:05 29° SE
Meteor 2-12 Rocket 4.4 23:04:25 10° N 23:10:31 74° E 23:14:05 26° SSE
Meteor 1-11 4.2 23:06:01 17° S 23:10:36 85° E 23:16:27 10° NNE
Cosmos 1503 Rocket 4.1 23:12:35 26° S 23:15:19 56° ESE 23:20:23 10° NNE
Cosmos 1626 2.0 23:19:15 39° S 23:20:33 83° E 23:24:18 10° N
Cosmos 2058 3.0 23:21:05 27° SSW 23:23:17 78° W 23:27:31 10° N
Cosmos 304 Rocket 3.8 23:18:37 10° NNW 23:23:25 71° ENE 23:25:22 35° SE
H-2A R/B 3.0 23:19:43 17° SSW 23:23:28 43° W 23:28:38 10° NNW
Cosmos 1726 4.4 23:21:26 10° NW 23:24:06 19° W 23:26:42 10° SW
Meteor 1-27 4.4 23:18:54 10° NNW 23:24:42 72° W 23:28:05 26° S
CZ-4B R/B 3.8 23:24:19 10° NNE 23:29:29 52° E 23:31:26 34° SSE
RESURS DK-1 4.5 23:27:54 10° WNW 23:30:50 19° WSW 23:32:49 14° SW
Cosmos 540 Rocket 3.5 23:26:07 10° NNW 23:31:17 72° ENE 23:33:24 36° SE
Cosmos 2263 Rocket 2.2 23:28:33 12° SSW 23:33:41 79° WNW 23:39:19 10° NNE
Spot 4 3.9 23:34:13 37° SSE 23:36:07 73° ENE 23:41:00 10° N
Sich 1 3.6 23:36:52 36° ESE 23:37:31 38° E 23:41:30 10° NNE
ERBS 3.9 23:37:05 10° WNW 23:39:46 24° WSW 23:39:46 24° WSW
PSLV R/B 3.0 23:40:58 73° WNW 23:40:58 73° WNW 23:43:41 10° NNW
COSMOS 2406 4.2 23:36:39 10° N 23:41:55 37° ENE 23:44:53 22° ESE
Cosmos 2285 Rocket 4.0 23:37:07 10° NNW 23:43:29 82° WSW 23:46:33 33° SSE
SL-24 R/B 4.4 23:43:08 48° SSE 23:44:13 79° ENE 23:48:25 10° N
deb Chang Zheng 4 3.6 23:40:40 10° NNE 23:45:03 81° WNW 23:46:51 36° SSW
Tiangong 1 3.0 23:43:35 10° W 23:44:32 18° W 23:44:32 18° W
Cosmos 2034 Rocket 4.3 23:42:35 10° N 23:48:52 58° ENE 23:51:34 34° SE
ALOS 2 4.2 23:48:17 20° E 23:49:39 24° ENE 23:53:08 10° NNE
Cosmos 1707 Rocket 3.6 23:45:27 10° N 23:49:57 72° E 23:51:03 49° SSE
DELTA 2 DEB (DPAF) 4.1 23:48:50 47° SSE 23:50:06 82° ENE 23:54:35 10° NNW
Cosmos 2151 4.4 23:47:34 16° SW 23:50:25 34° WNW 23:54:23 10° N
